This is the latest recevied weather packets stored in our database for station/object N2XP. If no packets are shown the sender has not sent any weather packets the latest 10 day(s).
| Time | Temp. | Humidity | Pressure | Rain* | Wind** | Luminosity | Snow |
|---|---|---|---|---|---|---|---|
| 1777798827 | 5.56° C | 66% | 1009.2 hPa | 0 mm | - | - | - |
| 1777797936 | 5.56° C | 65% | 1009.1 hPa | 0 mm | - | - | - |
| 1777797023 | 5.56° C | 63% | 1009.1 hPa | 0 mm | - | - | - |
| 1777796128 | 5.56° C | 62% | 1009.2 hPa | 0 mm | - | - | - |
| 1777795219 | 6.11° C | 62% | 1009 hPa | 0 mm | - | - | - |
| 1777794317 | 6.11° C | 62% | 1008.9 hPa | 0 mm | - | - | - |
| 1777793416 | 6.11° C | 60% | 1008.8 hPa | 0 mm | - | - | - |
| 1777792516 | 6.11° C | 66% | 1008.8 hPa | 0 mm | - | - | - |
| 1777791612 | 6.11° C | 65% | 1008.8 hPa | 0 mm | - | - | - |
| 1777790712 | 6.67° C | 63% | 1008.7 hPa | 0 mm | - | - | - |
| 1777789832 | 6.67° C | 61% | 1008.6 hPa | 0 mm | - | - | - |
| 1777788924 | 6.67° C | 60% | 1008.8 hPa | 0 mm | - | - | - |
| 1777788027 | 6.67° C | 60% | 1008.9 hPa | 0 mm | - | - | - |
| 1777787130 | 7.22° C | 59% | 1009 hPa | 0 mm | - | - | - |
| 1777786217 | 7.22° C | 58% | 1009.1 hPa | 0 mm | - | - | - |
| 1777785313 | 7.78° C | 57% | 1009.4 hPa | 0 mm | - | - | - |
| 1777784411 | 7.78° C | 57% | 1009.4 hPa | 0 mm | - | - | - |
| 1777783509 | 7.78° C | 55% | 1009.5 hPa | 0 mm | - | - | - |
| 1777782606 | 7.78° C | 55% | 1009.6 hPa | 0 mm | - | - | - |
| 1777781705 | 7.78° C | 54% | 1009.7 hPa | 0 mm | - | - | - |
| 1777780807 | 8.33° C | 55% | 1009.8 hPa | 0 mm | - | - | - |
| 1777779961 | 8.33° C | 54% | 1009.8 hPa | 0 mm | - | - | - |
| 1777779061 | 8.33° C | 53% | 1009.8 hPa | 0 mm | - | - | - |
| 1777778158 | 8.33° C | 56% | 1009.9 hPa | 0 mm | - | - | - |
| 1777777256 | 8.33° C | 59% | 1009.9 hPa | 0 mm | - | - | - |
* Rain latest hour (hover to see other rain measurements)
** Current wind speed in m/s (hover to see current wind gust speed)